Вернуться в каталог

NAVSTAR 47

USA 150

АктивенНавигацияHEO
NORAD 26360·PAYLOAD·🇺🇸 United States

Запущен May 11, 2000 с Cape Canaveral Space Force Station

Loading…

Ближайшие Пролёты (ближайшие 24 часа)

TLE

СвежийSource: Space-Track

Эпоха: Sep 14, 2026, 16:58 UTC

1 26360U 00025A   26257.70708513 -.00000103  00000-0  00000-0 0  9992
2 26360  55.1875  15.7033 0022063 261.3852 116.7946  2.00566985193074

Отслеживайте NAVSTAR 47 в реальном времени с AllMySat

Download on the App Store